Wind_Speed
4 4 4 4 4 2 2 2 3 2 1 1 1 1 1 2 2 2 2 2 2 3 3 2 3 3 3 3 3 3 4 5 7 6 6 5 5 5 6 6 6 7 8
4 4 4 5 4 3 2 2 2 2 1 1 1 2 2 2 2 2 2 2 2 2 2 2 2 3 2 3 3 3 3 5 5 7 7 6 6 6 6 6 7 7 7
4 3 4 5 5 4 4 3 2 2 2 2 2 2 2 2 2 2 2 2 1 1 2 2 2 3 3 3 4 3 4 5 5 7 7 6 6 7 7 7 7 7 7
4 3 4 5 5 5 4 4 3 3 3 2 2 2 2 2 3 2 2 2 2 2 3 2 2 3 3 4 4 4 4 5 6 7 7 7 7 7 8 8 7 7 7
5 4 5 5 5 5 5 5 4 3 3 3 3 3 3 3 3 2 2 3 3 3 3 2 2 3 3 4 4 4 5 5 6 7 8 8 8 8 10 9 8 8 8
6 5 6 6 6 6 5 5 5 4 3 4 4 4 4 3 3 3 3 3 4 3 3 3 3 2 3 4 4 5 5 5 6 6 8 8 8 9 9 8 9 8 8
6 6 6 6 6 6 6 6 6 5 4 4 4 4 4 4 4 4 4 4 4 4 3 3 3 3 2 3 4 5 5 6 6 7 8 8 9 10 10 8 8 8 8
6 6 6 6 6 6 7 7 7 7 5 5 5 5 4 4 5 4 4 4 4 4 5 3 3 3 4 3 4 5 5 6 6 8 9 8 9 10 10 9 8 8 9
6 6 6 6 6 7 7 7 7 8 7 5 5 5 5 5 5 5 5 5 5 4 4 4 4 4 4 4 5 5 6 6 6 6 7 8 9 9 9 8 8 9 9
6 6 7 7 7 8 8 8 8 8 7 7 6 6 6 6 6 5 5 5 5 4 4 5 5 5 5 5 6 6 6 6 6 7 7 8 8 9 9 8 8 9 9
7 7 8 8 8 8 9 9 9 8 8 7 7 7 7 7 7 6 5 5 5 5 5 6 6 5 5 5 6 6 6 6 6 6 7 7 7 8 9 9 9 10 10
8 7 7 8 9 9 9 9 9 8 9 8 8 8 8 8 8 7 7 7 7 7 7 7 7 6 6 6 6 6 6 6 7 7 7 7 8 9 10 10 10 10 11
8 7 7 8 9 9 10 10 10 10 10 10 10 9 9 9 9 9 9 8 8 8 8 8 8 7 7 7 6 6 7 7 7 8 8 9 9 10 11 11 11 11 11
8 8 8 8 8 9 9 9 10 10 10 10 11 10 11 10 10 10 10 8 9 9 9 9 9 8 8 8 8 8 7 8 9 9 10 10 11 11 12 12 12 12 12
9 9 9 9 9 9 9 9 10 11 11 10 11 12 12 12 12 11 11 10 10 9 10 10 9 9 10 10 10 10 9 10 10 10 11 11 12 12 12 12 13 13 12
11 10 10 10 10 9 9 10 11 11 12 11 11 12 13 12 12 13 12 11 10 10 11 10 10 10 10 11 11 11 11 11 12 13 13 13 13 13 13 13 13 14 14
12 11 12 11 11 10 10 11 11 11 12 13 12 13 13 13 14 14 14 12 11 11 11 11 12 11 11 11 12 13 13 13 13 13 14 15 14 14 14 14 14 14 15
12 12 12 11 11 11 11 12 12 12 12 13 13 13 14 14 15 15 14 12 12 12 12 12 12 12 12 13 13 14 15 14 14 15 16 16 16 15 15 15 16 16 16
14 13 13 12 12 12 12 13 13 13 14 14 14 14 14 15 15 15 15 13 12 13 13 13 13 13 13 13 14 15 16 16 16 17 17 17 16 17 17 17 17 18 17
15 14 14 14 13 13 13 14 14 14 15 14 14 15 14 14 15 15 14 13 13 13 14 14 14 14 14 14 15 16 16 17 17 17 17 17 17 18 18 18 18 18 17
15 15 15 15 15 15 14 14 14 15 15 15 15 15 16 15 15 15 14 13 13 14 14 14 14 14 14 15 15 16 16 17 17 17 17 18 18 18 18 18 18 18 18
15 16 16 16 16 16 16 16 15 16 16 15 15 15 16 16 16 16 15 15 15 15 15 15 15 15 15 15 16 16 16 16 17 17 18 18 18 18 18 18 19 19 19
17 17 17 17 17 17 17 17 17 17 17 17 17 17 17 17 17 16 16 16 15 15 15 15 15 15 16 16 16 16 16 17 18 18 18 18 19 19 19 19 19 19 20
18 19 19 18 18 19 19 19 18 18 18 18 18 18 18 17 16 15 16 16 16 15 15 15 15 16 16 16 16 16 17 17 18 18 18 18 19 19 20 20 21 21 21
20 20 20 19 20 20 19 19 19 19 18 18 19 19 18 16 16 15 15 16 16 16 16 16 16 16 16 17 17 17 17 18 18 19 19 19 19 20 20 21 21 21 22
20 20 20 20 20 20 20 20 19 20 20 20 19 18 17 17 16 16 16 15 16 17 17 17 17 17 17 17 17 17 18 18 19 19 19 19 19 20 20 20 21 21 22
Wind_Direction
326 326 322 315 309 307 307 302 290 290 269 248 197 177 192 180 180 170 163 156 165 187 195 202 202 198 210 217 223 225 232 224 225 227 225 229 233 233 235 237 243 239 234
322 320 316 309 302 301 313 307 306 297 282 283 262 222 204 196 212 189 182 184 183 197 208 212 217 225 230 228 228 223 229 228 237 232 229 233 235 230 229 235 240 241 238
315 310 301 300 297 295 297 299 309 311 294 298 284 244 227 233 221 211 208 203 219 227 232 230 231 232 231 237 233 228 233 239 238 229 233 232 232 232 233 237 233 235 236
308 302 293 290 290 291 291 295 302 308 304 302 284 269 258 246 229 232 229 232 248 240 224 226 226 228 238 250 240 233 240 241 241 238 235 228 229 231 230 227 224 229 231
307 296 288 283 284 282 282 287 290 292 292 294 288 281 271 265 259 260 241 245 254 240 233 240 236 231 237 250 244 244 248 248 251 245 237 234 235 230 226 223 222 224 225
295 291 284 277 277 273 276 279 280 279 281 282 286 286 280 272 267 267 252 253 254 252 256 258 257 257 255 256 255 248 246 249 250 251 241 235 238 224 222 222 219 225 222
294 288 283 277 269 268 267 273 269 265 273 275 276 279 276 275 274 271 264 257 255 254 270 281 281 279 288 279 269 259 251 249 251 249 248 242 240 234 231 226 221 227 224
292 288 282 277 275 268 266 267 264 260 262 269 275 273 271 273 269 266 266 266 263 261 264 271 289 288 296 282 274 269 258 254 249 241 244 245 235 228 229 230 229 230 226
295 293 285 279 278 272 264 262 260 256 253 261 273 275 267 266 259 260 263 269 271 266 263 265 277 288 290 278 269 264 259 257 250 240 240 241 233 231 231 231 233 232 227
294 293 292 287 282 276 269 262 257 253 253 258 263 264 261 258 255 257 259 263 267 271 267 269 277 287 283 274 268 261 264 263 251 235 229 226 225 235 235 236 235 233 231
292 289 291 288 283 275 268 264 255 252 253 255 259 255 251 251 253 256 253 258 261 268 267 268 268 270 272 266 264 263 262 258 251 233 225 226 228 232 237 239 238 236 235
294 289 289 287 283 276 271 264 256 252 250 252 257 252 247 248 255 257 260 267 271 267 261 262 263 265 264 269 270 271 269 263 259 250 237 235 239 239 238 240 239 239 236
292 285 283 286 284 276 269 262 254 254 252 254 252 250 248 250 255 258 261 264 268 266 261 263 262 263 265 271 271 271 268 259 258 254 251 244 241 243 243 243 241 241 241
285 284 286 285 281 276 268 262 255 250 250 254 253 252 250 251 252 255 253 258 263 266 264 266 265 263 265 268 268 268 267 260 259 255 253 249 247 249 246 244 244 245 245
282 283 284 284 279 277 270 263 260 254 253 251 255 254 252 251 252 254 253 259 261 266 267 263 259 261 263 265 265 263 263 263 263 257 252 252 253 253 253 250 246 246 249
278 281 284 286 280 276 272 267 262 260 257 254 255 256 254 254 255 259 259 255 261 266 267 261 258 260 263 265 264 261 259 263 263 260 256 253 254 257 254 251 248 248 251
277 282 286 284 280 279 275 273 269 264 259 257 258 258 258 258 261 262 260 256 256 260 264 260 262 263 264 268 267 260 260 262 261 262 261 259 257 256 253 253 253 254 256
277 282 285 283 281 279 277 276 273 268 263 263 261 260 261 261 263 264 262 260 257 256 259 262 263 264 266 269 268 266 264 263 262 263 262 261 258 256 257 258 258 258 261
276 281 283 282 282 278 277 278 275 270 267 265 265 264 264 262 262 265 264 263 262 260 260 259 263 269 269 270 271 271 269 264 263 264 262 259 258 257 259 261 260 260 261
275 278 278 279 279 276 276 279 277 272 273 265 265 266 264 264 266 266 265 264 264 263 262 264 268 273 272 271 272 272 270 265 264 264 263 260 259 258 259 260 260 262 260
275 277 275 278 278 277 276 278 278 273 272 266 264 265 264 267 266 263 265 265 266 266 265 267 270 274 273 273 272 273 268 264 265 265 264 263 261 260 260 260 260 261 262
275 277 278 279 278 276 275 276 277 274 272 271 267 266 271 270 267 262 263 263 265 265 265 268 272 274 274 275 274 271 267 266 265 266 265 264 263 262 261 260 260 259 261
274 277 278 277 277 276 273 273 276 274 272 272 270 268 272 270 266 267 265 263 263 263 264 269 270 272 273 273 274 270 269 270 269 267 266 266 265 263 262 262 262 260 260
273 275 276 275 275 275 273 273 273 274 271 270 271 270 270 270 268 264 265 266 266 266 267 270 271 273 273 272 273 272 269 269 270 268 266 267 267 266 265 263 262 262 261
272 274 273 273 272 272 272 272 271 271 271 271 272 272 272 271 267 262 266 267 266 268 267 269 270 273 273 272 272 272 271 270 269 268 267 267 267 267 267 266 263 263 262
271 273 272 272 271 271 272 273 273 270 269 271 272 269 267 269 267 267 269 268 269 270 268 270 270 271 272 273 273 272 272 271 269 268 266 267 267 267 266 265 264 263 264
Height
5891 5890 5890 5889 5889 5888 5887 5887 5886 5886 5885 5885 5885 5884 5884 5884 5884 5884 5884 5884 5884 5884 5884 5884 5884 5884 5885 5885 5885 5885 5884 5885 5886 5886 5887 5888 5888 5888 5889 5889 5890 5890 5890
5890 5890 5889 5888 5888 5887 5887 5886 5886 5885 5885 5884 5884 5884 5884 5884 5883 5883 5883 5883 5883 5883 5883 5883 5883 5883 5884 5884 5884 5884 5884 5884 5885 5885 5886 5887 5887 5887 5888 5888 5889 5889 5890
5889 5888 5888 5887 5887 5886 5886 5885 5885 5884 5884 5884 5883 5883 5883 5883 5883 5882 5882 5882 5882 5882 5882 5882 5882 5883 5883 5883 5883 5883 5884 5884 5884 5884 5885 5885 5886 5887 5887 5887 5888 5888 5889
5888 5887 5887 5886 5886 5885 5885 5884 5884 5883 5883 5883 5883 5883 5882 5882 5882 5882 5882 5881 5881 5881 5881 5881 5881 5882 5882 5882 5882 5882 5882 5883 5883 5883 5883 5884 5885 5885 5886 5886 5887 5887 5888
5886 5886 5885 5885 5884 5884 5884 5883 5882 5882 5882 5881 5881 5881 5881 5881 5881 5880 5881 5880 5880 5880 5880 5880 5880 5881 5881 5881 5881 5881 5881 5881 5881 5881 5882 5882 5883 5884 5884 5885 5886 5886 5887
5885 5884 5884 5883 5883 5883 5882 5882 5881 5880 5880 5880 5880 5880 5880 5879 5879 5879 5879 5879 5879 5879 5879 5879 5879 5879 5879 5879 5879 5879 5880 5880 5880 5880 5880 5881 5882 5882 5883 5884 5885 5885 5886
5883 5883 5882 5882 5881 5881 5881 5880 5879 5879 5879 5878 5878 5878 5878 5878 5878 5878 5878 5878 5878 5878 5878 5878 5878 5878 5878 5878 5878 5878 5878 5878 5878 5878 5878 5879 5880 5881 5881 5882 5883 5884 5885
5882 5881 5880 5880 5879 5879 5879 5878 5878 5877 5877 5877 5877 5877 5876 5877 5877 5877 5876 5876 5876 5876 5877 5877 5877 5876 5876 5876 5876 5876 5876 5877 5877 5877 5877 5877 5878 5879 5880 5881 5882 5883 5884
5880 5879 5878 5878 5878 5877 5877 5877 5876 5876 5876 5875 5875 5875 5875 5875 5875 5875 5875 5875 5875 5875 5875 5875 5875 5875 5874 5875 5875 5875 5875 5875 5875 5875 5875 5876 5877 5878 5878 5879 5881 5882 5882
5878 5878 5877 5876 5876 5875 5875 5875 5875 5874 5874 5874 5874 5873 5873 5873 5873 5874 5874 5874 5874 5874 5874 5874 5874 5873 5873 5873 5874 5874 5873 5873 5873 5873 5873 5874 5875 5876 5877 5878 5879 5880 5880
5876 5876 5875 5875 5874 5873 5873 5873 5872 5872 5872 5872 5872 5872 5871 5871 5871 5872 5872 5872 5873 5873 5873 5873 5873 5872 5872 5872 5872 5872 5872 5871 5871 5871 5872 5873 5874 5875 5876 5876 5877 5878 5879
5874 5874 5873 5873 5872 5871 5871 5870 5870 5870 5870 5870 5870 5870 5869 5869 5870 5870 5870 5871 5871 5871 5871 5871 5871 5870 5870 5870 5870 5870 5870 5870 5870 5870 5871 5872 5873 5873 5874 5875 5875 5876 5877
5872 5872 5871 5870 5869 5869 5868 5868 5868 5867 5867 5867 5867 5868 5868 5868 5868 5868 5869 5869 5869 5869 5869 5869 5869 5868 5868 5868 5868 5868 5868 5868 5868 5869 5869 5870 5871 5871 5872 5873 5873 5873 5874
5871 5870 5869 5868 5867 5867 5866 5866 5866 5865 5865 5865 5865 5865 5865 5866 5866 5866 5866 5866 5867 5867 5867 5866 5866 5866 5866 5866 5866 5867 5866 5866 5867 5867 5868 5868 5869 5869 5870 5870 5870 5871 5872
5869 5867 5867 5866 5865 5864 5864 5864 5863 5863 5863 5862 5863 5863 5863 5863 5863 5863 5863 5864 5864 5864 5864 5863 5863 5863 5864 5864 5864 5864 5864 5865 5865 5865 5865 5866 5866 5867 5867 5868 5868 5869 5869
5866 5865 5864 5864 5863 5862 5862 5861 5861 5861 5860 5860 5861 5860 5860 5861 5861 5861 5860 5860 5861 5861 5861 5860 5860 5861 5861 5861 5862 5862 5862 5862 5862 5862 5863 5863 5864 5864 5865 5865 5865 5866 5867
5864 5863 5862 5861 5861 5860 5859 5859 5858 5858 5858 5858 5858 5858 5858 5858 5858 5857 5857 5857 5857 5858 5857 5858 5858 5858 5858 5858 5859 5859 5859 5859 5859 5859 5860 5860 5861 5861 5862 5862 5862 5863 5863
5862 5861 5860 5859 5858 5858 5857 5857 5856 5855 5855 5855 5855 5855 5855 5855 5854 5854 5854 5854 5854 5854 5854 5855 5855 5854 5854 5855 5855 5855 5855 5856 5856 5856 5856 5857 5857 5858 5858 5858 5859 5859 5860
5859 5858 5858 5857 5856 5855 5855 5854 5853 5853 5852 5852 5852 5852 5852 5852 5851 5851 5852 5851 5851 5851 5852 5852 5852 5851 5851 5851 5851 5851 5852 5852 5852 5852 5852 5853 5853 5854 5854 5854 5855 5855 5856
5856 5856 5855 5854 5853 5853 5852 5851 5850 5850 5849 5849 5849 5849 5849 5849 5848 5848 5848 5848 5848 5848 5849 5849 5849 5848 5848 5847 5847 5847 5847 5847 5847 5848 5848 5848 5849 5849 5850 5850 5851 5851 5851
5852 5852 5852 5851 5850 5849 5849 5848 5847 5847 5846 5845 5845 5845 5846 5846 5845 5845 5845 5845 5845 5845 5845 5845 5845 5844 5844 5843 5843 5843 5843 5843 5843 5844 5844 5844 5845 5845 5845 5846 5846 5847 5847
5849 5848 5848 5847 5847 5846 5845 5845 5844 5843 5842 5842 5842 5842 5843 5842 5842 5841 5842 5842 5842 5841 5841 5841 5841 5840 5840 5839 5839 5839 5839 5840 5839 5839 5840 5840 5840 5840 5841 5841 5842 5842 5842
5845 5845 5844 5843 5843 5842 5842 5841 5840 5839 5839 5839 5839 5839 5838 5838 5838 5838 5837 5837 5838 5838 5838 5837 5837 5836 5836 5835 5835 5835 5835 5835 5835 5835 5835 5835 5835 5836 5836 5836 5837 5837 5838
5841 5840 5840 5839 5839 5838 5838 5838 5837 5836 5836 5836 5835 5835 5834 5834 5834 5834 5834 5833 5833 5833 5833 5833 5833 5833 5832 5831 5831 5831 5831 5831 5831 5831 5831 5831 5830 5831 5831 5831 5831 5832 5832
5836 5836 5835 5835 5834 5834 5834 5834 5833 5833 5832 5832 5831 5830 5830 5830 5830 5830 5830 5830 5830 5830 5829 5829 5829 5828 5828 5828 5827 5827 5826 5826 5826 5826 5826 5826 5826 5826 5826 5826 5826 5826 5826
5831 5831 5831 5831 5830 5830 5830 5830 5829 5828 5828 5827 5826 5826 5826 5826 5826 5826 5825 5825 5825 5825 5825 5825 5825 5824 5824 5823 5823 5822 5822 5822 5821 5821 5821 5820 5820 5820 5820 5820 5820 5820 5821